User: anonymous   Login
Location: Nickerson Gardens
(33.9320°N, 118.2484°W)
Time: 18:31:07
(UTC+00:00)
Language:

DIWATA 2B (PO-101) - Orbit

View from above orbital plane
View from above orbital plane
View from above satellite
View from above satellite

Ground track
Ground track

The orbit data is extracted from the following two-line orbital elements,

1 43678U 18084H   21106.27325144 -.00000071  00000-0 -13210-5 0  9999
2 43678  97.9130 231.2677 0008454 255.7720 104.2553 14.91730146134167
Epoch (UTC): 16 April 2021 06:33:28
Eccentricity: 0.0008454
inclination: 97.9130°
perigee height: 586 km
apogee height: 598 km
right ascension of ascending node: 231.2677°
argument of perigee: 255.7720°
revolutions per day: 14.91730146
mean anomaly at epoch: 104.2553°
orbit number at epoch: 13416

The dashed part of the orbit path shows where the satellite is in the earth's shadow,  

DLR